GW3523 Weather Reports


time (UTC)temp
C
wind
direction
speed
KPH
gust
KPH
rain 1hr
cm
rain 24hr
cm
rain mn
cm
humidity
%
barometer
mb
20260506004529 22 271 0.0 0.0 0.00 0.00 0.00 42 1008.2
20260506004026 22 269 0.0 1.6 0.00 0.00 0.00 43 1008.2
20260506003522 22 279 0.0 1.6 0.00 0.00 0.00 43 1008.1
20260506003018 22 269 1.6 3.2 0.00 0.00 0.00 40 1008.1
20260506002514 22 277 0.0 0.0 0.00 0.00 0.00 41 1008.1
20260506002010 23 270 0.0 0.0 0.00 0.00 0.00 42 1007.9
20260506001507 23 264 0.0 0.0 0.00 0.00 0.00 42 1007.7
20260506001004 23 258 3.2 3.2 0.00 0.00 0.00 40 1007.8
20260506000502 23 28 0.0 1.6 0.00 0.00 0.00 41 1007.7
20260505235958 23 247 3.2 3.2 0.00 0.00 0.00 40 1007.4
20260505235457 23 245 3.2 3.2 0.00 0.00 0.00 42 1007.6
20260505234953 23 243 3.2 4.8 0.00 0.00 0.00 40 1007.4
20260505234450 23 278 0.0 1.6 0.00 0.00 0.00 42 1007.3
20260505233947 23 267 0.0 1.6 0.00 0.00 0.00 42 1007.5
20260505233445 23 154 4.8 11.3 0.00 0.00 0.00 40 1007.2
20260505232942 23 172 1.6 4.8 0.00 0.00 0.00 41 1007.5
20260505232440 23 200 4.8 4.8 0.00 0.00 0.00 40 1007.3
20260505231937 23 260 1.6 3.2 0.00 0.00 0.00 40 1007.3
20260505231434 23 241 1.6 1.6 0.00 0.00 0.00 41 1007.3
20260505230932 23 272 0.0 1.6 0.00 0.00 0.00 41 1007.5
20260505230430 23 261 1.6 1.6 0.00 0.00 0.00 42 1007.3
20260505225926 23 223 1.6 1.6 0.00 0.00 0.00 41 1007.2
20260505225423 23 149 6.4 6.4 0.00 0.00 0.00 39 1007.4
20260505224918 23 208 1.6 3.2 0.00 0.00 0.00 41 1007.3
20260505224416 23 189 1.6 3.2 0.00 0.00 0.00 41 1007.3
20260505223913 23 275 0.0 0.0 0.00 0.00 0.00 42 1007.4
20260505223410 23 285 1.6 3.2 0.00 0.00 0.00 41 1007.4
20260505222906 23 241 1.6 3.2 0.00 0.00 0.00 40 1007.2
20260505222402 23 163 11.3 14.5 0.00 0.00 0.00 40 1007.2
20260505221859 23 263 0.0 1.6 0.00 0.00 0.00 42 1007.2
20260505221356 23 265 0.0 0.0 0.00 0.00 0.00 43 1007.3
20260505220853 23 155 0.0 1.6 0.00 0.00 0.00 41 1007.3
20260505220350 23 266 0.0 0.0 0.00 0.00 0.00 42 1007.1
20260505215847 24 265 6.4 9.7 0.00 0.00 0.00 40 1007.1
20260505215345 24 242 0.0 0.0 0.00 0.00 0.00 43 1007.2
20260505214843 24 229 0.0 1.6 0.00 0.00 0.00 41 1007.2
20260505214340 23 245 1.6 1.6 0.00 0.00 0.00 41 1007.1
20260505213837 23 248 1.6 3.2 0.00 0.00 0.00 43 1007.0
20260505213335 23 195 3.2 4.8 0.00 0.00 0.00 41 1007.2
20260505212831 23 215 3.2 4.8 0.00 0.00 0.00 40 1007.2
20260505212328 23 238 1.6 3.2 0.00 0.00 0.00 40 1007.3
20260505211824 24 175 6.4 6.4 0.00 0.00 0.00 39 1007.0
20260505211322 24 293 0.0 1.6 0.00 0.00 0.00 41 1006.9
20260505210818 24 177 1.6 1.6 0.00 0.00 0.00 40 1007.1
20260505210315 24 280 1.6 3.2 0.00 0.00 0.00 41 1006.9
20260505205812 25 101 1.6 1.6 0.00 0.00 0.00 40 1006.7
20260505205311 25 259 0.0 1.6 0.00 0.00 0.00 42 1006.8
20260505204807 25 262 1.6 1.6 0.00 0.00 0.00 41 1006.7
20260505204305 25 168 1.6 3.2 0.00 0.00 0.00 40 1006.9
20260505203802 25 189 9.7 11.3 0.00 0.00 0.00 39 1006.6
20260505203259 25 200 8.0 11.3 0.00 0.00 0.00 38 1006.7
20260505202754 25 233 3.2 4.8 0.00 0.00 0.00 38 1006.7
20260505202251 26 225 1.6 3.2 0.00 0.00 0.00 37 1006.4
20260505201747 27 167 3.2 4.8 0.00 0.00 0.00 35 1006.8
20260505201245 26 277 3.2 4.8 0.00 0.00 0.00 38 1006.8
20260505200744 27 172 3.2 6.4 0.00 0.00 0.00 37 1006.8
20260505200240 26 173 6.4 6.4 0.00 0.00 0.00 36 1006.8
20260505195735 25 157 3.2 11.3 0.00 0.00 0.00 37 1006.9
20260505195233 26 270 1.6 1.6 0.00 0.00 0.00 38 1006.9
20260505194730 27 159 12.9 14.5 0.00 0.00 0.00 36 1006.8
20260505194227 27 248 1.6 1.6 0.00 0.00 0.00 35 1006.9
20260505193722 26 144 4.8 9.7 0.00 0.00 0.00 37 1006.8
20260505193220 25 210 6.4 9.7 0.00 0.00 0.00 37 1006.8
20260505192719 26 153 9.7 11.3 0.00 0.00 0.00 38 1007.0
20260505192216 27 109 11.3 12.9 0.00 0.00 0.00 38 1007.1
20260505191714 26 158 8.0 9.7 0.00 0.00 0.00 37 1007.2
20260505191212 26 189 9.7 12.9 0.00 0.00 0.00 36 1007.0
20260505190708 27 203 4.8 6.4 0.00 0.00 0.00 35 1007.3
20260505190207 26 187 3.2 3.2 0.00 0.00 0.00 37 1007.5
20260505185705 27 307 4.8 4.8 0.00 0.00 0.00 35 1007.4
20260505185201 26 240 4.8 6.4 0.00 0.00 0.00 34 1007.7
20260505184657 27 158 3.2 4.8 0.00 0.00 0.00 34 1007.6
20260505184155 26 277 0.0 1.6 0.00 0.00 0.00 40 1007.8
20260505183651 26 228 1.6 3.2 0.00 0.00 0.00 37 1007.7
20260505183149 27 148 9.7 11.3 0.00 0.00 0.00 35 1007.6
20260505182645 26 153 3.2 9.7 0.00 0.00 0.00 35 1007.8
20260505182142 27 257 3.2 4.8 0.00 0.00 0.00 35 1008.2
20260505181638 27 187 4.8 6.4 0.00 0.00 0.00 35 1008.1
20260505181136 27 219 3.2 4.8 0.00 0.00 0.00 39 1008.0
20260505180632 27 255 0.0 1.6 0.00 0.00 0.00 38 1008.2
20260505180130 27 144 8.0 11.3 0.00 0.00 0.00 36 1008.2
20260505175625 28 106 4.8 9.7 0.00 0.00 0.00 33 1008.2
20260505175122 28 250 0.0 1.6 0.00 0.00 0.00 36 1008.0
20260505174618 27 217 9.7 12.9 0.00 0.00 0.00 36 1008.1
20260505174115 27 182 3.2 3.2 0.00 0.00 0.00 39 1008.2
20260505173611 27 224 0.0 1.6 0.00 0.00 0.00 40 1008.1
20260505173108 27 106 1.6 1.6 0.00 0.00 0.00 38 1008.1
20260505172606 27 231 3.2 3.2 0.00 0.00 0.00 38 1007.9
20260505172103 27 256 0.0 0.0 0.00 0.00 0.00 38 1008.4
20260505171557 27 87 4.8 6.4 0.00 0.00 0.00 36 1008.4
20260505171054 27 5 4.8 6.4 0.00 0.00 0.00 38 1008.3
20260505170551 26 245 1.6 3.2 0.00 0.00 0.00 42 1008.4
20260505170048 26 251 4.8 9.7 0.00 0.00 0.00 40 1008.8
20260505165542 26 270 0.0 1.6 0.00 0.00 0.00 41 1008.7
20260505165038 27 103 0.0 1.6 0.00 0.00 0.00 37 1008.6
20260505164529 27 248 3.2 3.2 0.00 0.00 0.00 36 1008.5
20260505164027 26 268 3.2 4.8 0.00 0.00 0.00 44 1008.7
20260505163525 26 215 1.6 1.6 0.00 0.00 0.00 41 1008.8
20260505163021 27 258 3.2 3.2 0.00 0.00 0.00 41 1008.8
20260505162515 26 269 0.0 1.6 0.00 0.00 0.00 42 1009.0
20260505162012 26 262 3.2 3.2 0.00 0.00 0.00 40 1008.9
20260505161508 26 256 3.2 4.8 0.00 0.00 0.00 40 1008.9
20260505161005 26 249 3.2 3.2 0.00 0.00 0.00 40 1009.0
20260505160458 25 159 3.2 6.4 0.00 0.00 0.00 45 1009.0
20260505152928 25 242 1.6 1.6 0.00 0.00 0.00 45 1009.2
20260505152426 25 262 1.6 3.2 0.00 0.00 0.00 49 1009.4
20260505151925 23 148 3.2 3.2 0.00 0.00 0.00 48 1009.2
20260505151416 25 161 3.2 4.8 0.00 0.00 0.00 46 1009.3
20260505150914 24 161 8.0 9.7 0.00 0.00 0.00 49 1009.3
20260505150410 23 194 3.2 4.8 0.00 0.00 0.00 49 1009.5
20260505140335 23 226 4.8 6.4 0.00 0.00 0.00 48 1009.4
20260505130252 21 271 0.0 0.0 0.00 0.00 0.00 54 1010.0
20260505124743 21 269 0.0 1.6 0.00 0.00 0.00 56 1010.0
20260505124239 21 222 1.6 3.2 0.00 0.00 0.00 52 1009.8
20260505123735 20 349 3.2 3.2 0.00 0.00 0.00 54 1009.6
20260505123232 21 207 3.2 3.2 0.00 0.00 0.00 52 1009.8
20260505122728 20 239 0.0 0.0 0.00 0.00 0.00 54 1009.6
20260505122226 20 249 0.0 1.6 0.00 0.00 0.00 53 1009.9
20260505121722 20 244 1.6 1.6 0.00 0.00 0.00 54 1009.8
20260505121219 20 262 0.0 0.0 0.00 0.00 0.00 56 1009.8
20260505120715 19 253 0.0 1.6 0.00 0.00 0.00 57 1009.7
20260505120211 19 283 0.0 1.6 0.00 0.00 0.00 59 1009.9
20260505115705 19 269 0.0 0.0 0.00 0.00 0.00 59 1009.7
20260505115203 18 252 0.0 0.0 0.00 0.00 0.00 61 1009.6
20260505114700 18 276 0.0 0.0 0.00 0.00 0.00 62 1009.8
20260505114155 18 271 0.0 0.0 0.00 0.00 0.00 59 1009.5
20260505113652 19 261 0.0 0.0 0.00 0.00 0.00 57 1009.6
20260505113149 18 234 0.0 1.6 0.00 0.00 0.00 59 1009.6
20260505112645 18 261 0.0 0.0 0.00 0.00 0.00 61 1009.6
20260505112144 18 274 1.6 1.6 0.00 0.00 0.00 60 1009.6
20260505111643 17 287 0.0 1.6 0.00 0.00 0.00 61 1009.5
20260505111139 17 260 1.6 3.2 0.00 0.00 0.00 62 1009.5
20260505110635 16 268 0.0 0.0 0.00 0.00 0.00 65 1009.5
20260505110133 16 267 0.0 0.0 0.00 0.00 0.00 67 1009.4
20260505102108 16 312 3.2 3.2 0.00 0.00 0.00 66 1009.2
20260505101607 16 264 0.0 0.0 0.00 0.00 0.00 68 1009.0
20260505101103 15 270 1.6 1.6 0.00 0.00 0.00 68 1008.9
20260505100559 15 263 0.0 0.0 0.00 0.00 0.00 67 1009.1
20260505100056 15 266 0.0 1.6 0.00 0.00 0.00 70 1009.0
20260505095552 15 295 1.6 3.2 0.00 0.00 0.00 68 1008.9
20260505095049 15 275 0.0 1.6 0.00 0.00 0.00 70 1008.9
20260505094545 15 246 0.0 1.6 0.00 0.00 0.00 70 1008.6
20260505094042 15 313 3.2 4.8 0.00 0.00 0.00 70 1008.6
20260505093538 15 304 3.2 4.8 0.00 0.00 0.00 70 1008.9
20260505093036 15 247 3.2 3.2 0.00 0.00 0.00 69 1008.8
20260505092533 15 283 0.0 0.0 0.00 0.00 0.00 70 1008.7
20260505092031 15 315 0.0 1.6 0.00 0.00 0.00 69 1008.7
20260505091528 15 301 4.8 4.8 0.00 0.00 0.00 69 1008.6
20260505091026 15 272 0.0 1.6 0.00 0.00 0.00 67 1008.7
20260505090524 15 248 0.0 0.0 0.00 0.00 0.00 67 1008.6
20260505090021 15 311 1.6 1.6 0.00 0.00 0.00 69 1008.7
20260505085519 15 133 3.2 4.8 0.00 0.00 0.00 69 1008.8
20260505085017 15 140 1.6 3.2 0.00 0.00 0.00 69 1008.7
20260505084515 15 268 0.0 0.0 0.00 0.00 0.00 70 1008.7
20260505084013 15 281 0.0 0.0 0.00 0.00 0.00 72 1008.7
20260505083510 15 239 1.6 3.2 0.00 0.00 0.00 72 1008.8
20260505083006 15 272 0.0 0.0 0.00 0.00 0.00 71 1008.7
20260505082502 15 277 0.0 1.6 0.00 0.00 0.00 71 1008.7
20260505081959 16 292 3.2 3.2 0.00 0.00 0.00 69 1008.5
20260505081456 16 322 1.6 3.2 0.00 0.00 0.00 69 1008.4
20260505080952 16 289 1.6 1.6 0.00 0.00 0.00 69 1008.6
20260505080448 16 257 0.0 1.6 0.00 0.00 0.00 69 1008.6
20260505075944 16 270 0.0 1.6 0.00 0.00 0.00 67 1008.7
20260505075441 15 286 0.0 1.6 0.00 0.00 0.00 65 1008.5
20260505074938 15 274 1.6 3.2 0.00 0.00 0.00 66 1008.7
20260505074436 13 319 1.6 3.2 0.00 0.00 0.00 71 1008.9
20260505073933 13 302 1.6 1.6 0.00 0.00 0.00 70 1008.7
20260505073430 14 262 0.0 0.0 0.00 0.00 0.00 68 1008.8
20260505072927 14 271 0.0 0.0 0.00 0.00 0.00 68 1008.5
20260505072423 15 319 3.2 3.2 0.00 0.00 0.00 64 1008.6
20260505071920 14 267 0.0 0.0 0.00 0.00 0.00 66 1008.7
20260505071416 13 297 1.6 3.2 0.00 0.00 0.00 67 1008.7
20260505070914 14 268 0.0 0.0 0.00 0.00 0.00 67 1008.7
20260505070410 13 289 1.6 1.6 0.00 0.00 0.00 68 1008.8
20260505065906 13 265 0.0 0.0 0.00 0.00 0.00 68 1008.7
20260505065402 13 266 0.0 0.0 0.00 0.00 0.00 67 1008.8
20260505064859 14 297 1.6 1.6 0.00 0.00 0.00 67 1008.9
20260505064356 15 269 0.0 0.0 0.00 0.00 0.00 65 1008.7
20260505063855 15 289 1.6 1.6 0.00 0.00 0.00 65 1008.9
20260505063356 15 272 0.0 0.0 0.00 0.00 0.00 65 1008.9
20260505062852 15 264 0.0 0.0 0.00 0.00 0.00 63 1008.9
20260505062350 15 270 0.0 0.0 0.00 0.00 0.00 62 1009.0
20260505061846 15 284 1.6 1.6 0.00 0.00 0.00 61 1009.0
20260505061345 15 284 0.0 0.0 0.00 0.00 0.00 62 1009.0
20260505060842 15 264 0.0 0.0 0.00 0.00 0.00 62 1009.2
20260505060339 15 264 0.0 0.0 0.00 0.00 0.00 63 1009.1
20260505055835 15 301 3.2 3.2 0.00 0.00 0.00 60 1009.2
20260505055331 16 318 1.6 3.2 0.00 0.00 0.00 60 1009.2
20260505054828 16 247 1.6 1.6 0.00 0.00 0.00 60 1009.2
20260505054325 16 266 0.0 0.0 0.00 0.00 0.00 58 1009.2
20260505053824 16 280 1.6 1.6 0.00 0.00 0.00 59 1009.0
20260505053320 16 341 3.2 4.8 0.00 0.00 0.00 60 1009.2
20260505052817 16 267 0.0 0.0 0.00 0.00 0.00 60 1009.0
20260505052314 16 304 3.2 3.2 0.00 0.00 0.00 60 1009.2
20260505051811 15 279 0.0 0.0 0.00 0.00 0.00 59 1009.0
20260505051309 16 270 1.6 1.6 0.00 0.00 0.00 59 1009.1
20260505050806 15 165 0.0 1.6 0.00 0.00 0.00 60 1009.1
20260505050305 16 272 0.0 0.0 0.00 0.00 0.00 59 1009.1
20260505041735 17 253 1.6 1.6 0.00 0.00 0.00 54 1008.9
20260505041232 16 168 8.0 9.7 0.00 0.00 0.00 51 1008.7
20260505040729 17 187 3.2 4.8 0.00 0.00 0.00 51 1008.7
20260505040226 17 227 0.0 0.0 0.00 0.00 0.00 53 1008.5
20260505035723 17 175 4.8 4.8 0.00 0.00 0.00 51 1008.7
20260505035219 17 269 0.0 0.0 0.00 0.00 0.00 51 1008.8
20260505034716 16 228 1.6 3.2 0.00 0.00 0.00 51 1008.6
20260505034213 17 144 6.4 9.7 0.00 0.00 0.00 49 1008.6
20260505033709 16 200 4.8 9.7 0.00 0.00 0.00 51 1008.7
20260505033208 16 183 4.8 4.8 0.00 0.00 0.00 50 1008.7
20260505032705 16 161 0.0 1.6 0.00 0.00 0.00 52 1008.6
20260505032201 16 130 6.4 6.4 0.00 0.00 0.00 51 1008.8
20260505031658 16 156 3.2 3.2 0.00 0.00 0.00 52 1008.5
20260505031155 17 152 3.2 4.8 0.00 0.00 0.00 49 1008.5
20260505030651 17 179 4.8 6.4 0.00 0.00 0.00 50 1008.7
20260505030147 17 152 3.2 4.8 0.00 0.00 0.00 51 1008.7
20260505025643 17 98 6.4 6.4 0.00 0.00 0.00 50 1008.7
20260505025142 17 128 6.4 6.4 0.00 0.00 0.00 49 1008.8
20260505024639 17 66 1.6 3.2 0.00 0.00 0.00 49 1008.6
20260505024136 17 179 3.2 3.2 0.00 0.00 0.00 49 1008.7
20260505023634 17 150 6.4 6.4 0.00 0.00 0.00 49 1008.9
20260505023131 17 107 8.0 12.9 0.00 0.00 0.00 50 1008.6
20260505022628 17 161 9.7 12.9 0.00 0.00 0.00 49 1008.9
20260505022125 17 111 16.1 20.9 0.00 0.00 0.00 48 1009.1
20260505021622 17 262 3.2 4.8 0.00 0.00 0.00 49 1008.8
20260505021119 17 183 3.2 3.2 0.00 0.00 0.00 49 1009.0
20260505020614 17 246 6.4 9.7 0.00 0.00 0.00 48 1008.9
20260505020111 17 145 9.7 11.3 0.00 0.00 0.00 48 1009.1
20260505015608 17 170 8.0 11.3 0.00 0.00 0.00 48 1009.1
20260505015105 17 176 4.8 4.8 0.00 0.00 0.00 48 1008.9
20260505014601 17 164 6.4 6.4 0.00 0.00 0.00 47 1008.9
20260505014058 17 164 6.4 6.4 0.00 0.00 0.00 47 1009.1
20260505013555 17 177 8.0 11.3 0.00 0.00 0.00 47 1008.8
20260505013053 17 141 6.4 11.3 0.00 0.00 0.00 47 1008.8
20260505012551 17 122 8.0 9.7 0.00 0.00 0.00 48 1008.9
20260505012047 18 99 16.1 20.9 0.00 0.00 0.00 47 1009.0
20260505011543 18 152 8.0 9.7 0.00 0.00 0.00 46 1008.7
20260505011041 18 170 3.2 4.8 0.00 0.00 0.00 47 1008.7
20260505010536 18 163 8.0 9.7 0.00 0.00 0.00 47 1008.8
20260505010033 18 140 6.4 11.3 0.00 0.00 0.00 46 1008.5
20260505005529 18 148 3.2 6.4 0.00 0.00 0.00 46 1008.5
20260505005027 18 169 0.0 0.0 0.00 0.00 0.00 46 1008.4